DELTA 1 DEB, 42082

Orbit data source: Space-Track

DELTA 1 DEB, 42082 is space debris in SSO originally from a launch on Sun, 15 Dec 1968 UTC launched from the Air Force Western Test Range (AFWTR). Debris objects in space refer to the collection of defunct objects orbiting the Earth. Examples of debris include non-operational satellites, rocket bodies, and fragments generated from explosions, collisions, or faulty payload assembly.

Loading next visibility...
DELTA 1 DEB details
Identifier
42082, 1968-114J
Orbit
SSO
Last TLE update1 day ago
Origin
Flag of USGSFC (US)
ManufacturerAerojet
MissionSpacecraft
Bus & MotorUnknown
MassUnknown
Launch date (UTC)
1968-12-15 (56 years ago)
Launch vehicleUnknown
Launch site
Air Force Western Test Range (AFWTR)
Object type
Payload
Rocket body
Debris
Shape & HBRUnknown
Radar Cross SectionSmall (<0.1 m²)

Expand to show TLE details & history

TLE from 1 day ago
0 DELTA 1 DEB
1 42082U 68114J   24360.33982427  .00000072  00000-0  83256-3 0  9995
2 42082 101.9093 305.6100 0086368 240.3639 280.7032 12.42684644503476
Epoch: 2024-12-25T08:09Z
Definitive object data (Epoch: 2024-12-25T08:09:20.816Z)
Latitude19.46381°
Longitude-86.80822°
Altitude1,485.309 km
Speed7.128 km/s
True Right ascension08h 39m 27s
True Declination19° 21' 58"
Sunlit
Object was in full shadow at TLE epoch
Visualization TLE readout
Latitude-78.08779°
Longitude174.55985°
Altitude1,466.094 km
Speed7.155 km/s
Apparent Right ascension05h 50m 00s
Apparent Declination-64° 25' 40"
Sunlit
Object is in daylight
Visualization observer readout
Local Sidereal Time18:53:59
Azimuth164.383° S
Elevation-63.774°
Doppler factor1
Orbital elements
Apogee altitude1,560.788 km
Perigee altitude1,424.829 km
Semi-major axis7,870.946 km
Eccentricity0.0086368
Inclination101.9093°
RAAN305.61°
Arg. of periapsis240.3639°
True anomaly279.72881°
Mean anomaly280.7032°
Eccentric anomaly280.21619°
Mean motion3.10816 °/min
BSTAR0.00083256
Orbital period115.82 mins
Loading maneuver chart data...
Loading historical data...
Loading historical data...
Loading historical data...
Loading historical data...
Loading historical data...
Loading historical data...
Loading historical data...

DELTA 1 DEB Visibility forecast

Observer location: undefined°, undefined

Span
Click to sort rows by Start time (UTC) header in descending order
Start Az.
Max El. time (UTC)
Max El. Az.
Max El.
End time (UTC)
End Az.
16 mins2024-12-26 20:05:19.273Z153.598° SSE2024-12-26 20:13:19.273Z79.016° E44.479°2024-12-26 20:21:19.273Z345.293° N
11 mins2024-12-26 22:03:19.273Z229.609° WSW2024-12-26 22:08:19.273Z271.128° WNW20.92°2024-12-26 22:14:19.273Z314.96° NW
12 mins2024-12-27 08:16:19.273Z46.597° ENE2024-12-27 08:22:19.273Z101.141° ESE25.694°2024-12-27 08:28:19.273Z150.11° SSE
14 mins2024-12-27 10:09:19.273Z8.639° NNE2024-12-27 10:16:19.273Z282.813° WNW41.58°2024-12-27 10:23:19.273Z217.215° SW
6 mins2024-12-27 12:05:19.273Z334.227° NNW2024-12-27 12:08:19.273Z311.718° NW14.296°2024-12-27 12:11:19.273Z289.823° WNW
12 mins2024-12-27 19:19:19.273Z123.945° SE2024-12-27 19:26:19.273Z52.958° ENE34.726°2024-12-27 19:31:19.273Z3.023° NNE
|